Regional Weather Roundup
Issued by NWS

Home | Current Version | Previous Version | Graphics & Text | Print | Product List | Glossary On
Versions: 1 2 3 4 5 6 7 8 9 10 11 12 13 14 15 16 17 18 19 20 21 22 23 24 25 26 27 28 29 30 31 32 33 34 35 36 37 38 39 40 41 42 43 44 45 46 47 48 49 50
000
ASUS43 KFSD 262302
RWRSD

WEATHER ROUNDUP FOR SOUTH DAKOTA
NATIONAL WEATHER SERVICE SIOUX FALLS SD
600 PM CDT TUE JUL 26 2016

NOTE: "FAIR" INDICATES FEW OR NO CLOUDS BELOW 12,000 FEET WITH NO
SIGNIFICANT WEATHER AND/OR OBSTRUCTIONS TO VISIBILITY.


SDZ001>005-009-010-012>017-270000-
NORTHWEST AND NORTH CENTRAL SOUTH DAKOTA

CITY           SKY/WX    TMP DP  RH WIND       PRES   REMARKS
BUFFALO          N/A     86  55  34 N15       29.98S
FAITH            N/A     84  54  35 NE17      30.00F
MOBRIDGE       SUNNY     85  65  51 E10       29.94F
$$

SDZ012>016-024>037-041>051-057-063-072>074-270000-
SOUTHWEST AND SOUTH CENTRAL SOUTH DAKOTA

CITY           SKY/WX    TMP DP  RH WIND       PRES   REMARKS
RAPID CTY ARPT CLOUDY    82  57  42 N9        30.02R
PIERRE         CLOUDY    87  65  47 SE22G30   29.90S
CUSTER         CLOUDY    72  53  51 N17G32    30.16R THUNDER
PHILIP         SUNNY     92  60  34 E7        29.91F
PINE RIDGE     SUNNY     94  59  31 VRB5      29.94F
WINNER         FAIR      95  56  26 S12       29.90F
$$

SDZ004>011-016>023-039-040-270000-
NORTHEAST SOUTH DAKOTA

CITY           SKY/WX    TMP DP  RH WIND       PRES   REMARKS
ABERDEEN       CLOUDY    77  66  68 S7        29.95F
WATERTOWN      PTSUNNY   75  66  73 S12       29.97F
BROOKINGS      CLOUDY    76  69  79 CALM      29.99F
SISSETON         N/A     72  68  87 NW5       29.93F
$$

SDZ017-020-022-023-036>040-048>070-270000-
SOUTHEAST SOUTH DAKOTA

CITY           SKY/WX    TMP DP  RH WIND       PRES   REMARKS
SIOUX FALLS    PTSUNNY   84  65  52 S12       30.00F
HURON          PTSUNNY   82  65  56 E9        29.94F
CHAMBERLAIN    CLOUDY    81  71  71 E10G16    29.94R
MITCHELL       MOSUNNY   88  60  38 SE13      29.94F
YANKTON        MOSUNNY   86  64  48 SE12      29.96S
$$

ABBREVIATIONS USED IN REMARKS
   TC - TEMPERATURE IN CELSIUS
  WCI - WIND CHILL INDEX
   HX - HEAT INDEX
  VSB - VISIBILITY




USA.gov is the U.S. government's official web portal to all federal, state and local government web resources and services.